DW6345 Murcia ES current weather conditions

sailwx.info

Wind from 187 at 1 knots gusting 5

Air temperature 28.3° C
Dewpoint -2.7° C

Last reported at 2014-Oct-23 14:45 UTC.
Time now 2014-Oct-23 15:57 UTC

Location: N 37°60' W 001°06'.
View on Google Maps.

See reports from other nearby stations

  
Tides and Currents Weather Stations Pressure Air Temp Water Temp Dewpoint Dewpoint Depression Visibility Wind Speed Wind Dir Waves Ship Positions
date/time (UTC)wind fromknots sea level pressurealtimeterstation pressurevisibilityair tempwater tempwave heightnotes
2014-Oct-23 14:45 187 1 gusting 5 28.3
2014-Oct-23 14:35 268 2 gusting 5 28.3
2014-Oct-23 14:25 315 2 gusting 5 27.8
2014-Oct-23 14:15 270 2 gusting 6 27.8
2014-Oct-23 14:05 223 0 gusting 6 28.3
2014-Oct-23 13:55 255 1 gusting 5 27.8
2014-Oct-23 13:45 254 1 gusting 5 27.8
2014-Oct-23 13:35 270 1 gusting 4 27.8
2014-Oct-23 13:25 204 1 gusting 5 27.8
2014-Oct-23 13:15 270 2 gusting 5 27.8
2014-Oct-23 13:05 234 0 gusting 5 27.2
2014-Oct-23 12:55 237 1 gusting 6 26.1
2014-Oct-23 12:45 266 2 gusting 6 26.1
2014-Oct-23 12:35 284 0 gusting 5 26.1
2014-Oct-23 12:25 135 0 gusting 5 26.1
2014-Oct-23 12:15 225 2 gusting 7 25.6
2014-Oct-23 12:05 225 4 gusting 7 25.6
2014-Oct-23 11:55 259 0 gusting 5 25.0
2014-Oct-23 11:45 215 1 gusting 5 25.0
2014-Oct-23 11:35 271 1 gusting 6 24.4
2014-Oct-23 11:25 226 2 gusting 6 23.9
2014-Oct-23 11:15 240 2 gusting 6 23.9
2014-Oct-23 11:05 270 0 gusting 5 23.9
2014-Oct-23 10:55 210 2 gusting 5 23.3
2014-Oct-23 10:45 045 22.2
2014-Oct-23 10:35 255 2 gusting 5 22.2
2014-Oct-23 10:25 276 1 gusting 5 21.7
2014-Oct-23 10:15 270 0 gusting 5 21.7
2014-Oct-23 10:05 315 2 gusting 5 21.7
2014-Oct-23 09:55 300 0 gusting 4 21.1
2014-Oct-23 09:45 315 1 gusting 5 20.6
2014-Oct-23 09:35 221 2 gusting 5 20.0
2014-Oct-23 09:25 234 3 gusting 6 20.0
2014-Oct-23 09:15 242 1 gusting 6 19.4
2014-Oct-23 09:05 270 2 gusting 6 18.9
2014-Oct-23 08:55 270 2 gusting 6 18.3
2014-Oct-23 08:45 286 2 gusting 6 17.8
2014-Oct-23 08:35 270 2 gusting 5 17.8
2014-Oct-23 08:25 285 1 gusting 5 17.8
2014-Oct-23 08:15 313 1 gusting 2 17.2
2014-Oct-23 08:05 314 0 gusting 2 17.2
2014-Oct-23 07:55 270 0 gusting 2 16.7
2014-Oct-23 07:45 225 1 gusting 4 16.1
2014-Oct-23 07:35 225 1 gusting 5 16.1
2014-Oct-23 07:25 303 0 gusting 2 15.6
2014-Oct-23 07:15 270 0 gusting 2 15.6
2014-Oct-23 07:05 315 0 gusting 2 15.0
2014-Oct-23 06:55 284 1 gusting 2 15.0
2014-Oct-23 06:45 270 1 gusting 4 15.0
2014-Oct-23 06:35 247 2 gusting 5 15.0
2014-Oct-23 06:25 225 2 gusting 5 15.0
2014-Oct-23 06:15 225 1 gusting 4 15.6
2014-Oct-23 06:05 270 0 gusting 2 15.6
2014-Oct-23 05:55 270 1 gusting 5 15.6
2014-Oct-23 05:45 270 1 gusting 5 15.0
2014-Oct-23 05:35 270 2 gusting 5 15.0
2014-Oct-23 05:25 270 1 gusting 5 15.0
2014-Oct-23 05:15 292 1 gusting 5 15.0
2014-Oct-23 05:05 315 2 gusting 5 15.6
2014-Oct-23 04:55 195 2 gusting 5 15.6
2014-Oct-23 04:45 225 1 gusting 4 15.6
2014-Oct-23 04:35 257 0 gusting 2 15.6
2014-Oct-23 04:25 300 0 gusting 2 15.6
2014-Oct-23 04:15 270 0 gusting 2 15.6
2014-Oct-23 04:05 225 0 gusting 2 15.6
2014-Oct-23 03:55 270 0 gusting 2 15.6
2014-Oct-23 03:45 225 15.6
2014-Oct-23 03:35 266 15.6
2014-Oct-23 03:25 189 0 gusting 4 15.6
2014-Oct-23 03:15 180 0 gusting 2 16.1
2014-Oct-23 03:05 315 0 gusting 1 16.1
2014-Oct-23 02:55 318 16.1
2014-Oct-23 02:45 192 0 gusting 2 16.7
2014-Oct-23 02:35 315 0 gusting 2 16.7
2014-Oct-23 02:25 315 1 gusting 4 16.7
2014-Oct-23 02:15 270 0 gusting 2 17.2
2014-Oct-23 02:05 270 0 gusting 4 17.2
2014-Oct-23 01:55 309 2 gusting 5 17.2
2014-Oct-23 01:45 312 1 gusting 5 17.2
2014-Oct-23 01:35 270 1 gusting 5 17.2
2014-Oct-23 01:25 270 1 gusting 4 17.2
2014-Oct-23 01:15 304 0 gusting 5 17.2
2014-Oct-23 01:05 225 2 gusting 2 17.8
2014-Oct-23 00:55 270 2 gusting 4 17.8
2014-Oct-23 00:45 301 1 gusting 2 17.8
2014-Oct-23 00:35 225 1 gusting 4 17.8
2014-Oct-23 00:25 270 2 gusting 5 17.8
2014-Oct-23 00:15 270 0 gusting 4 17.8
2014-Oct-23 00:05 270 2 gusting 5 18.3
2014-Oct-22 23:55 270 2 gusting 6 18.3
2014-Oct-22 23:45 270 4 gusting 6 18.3
2014-Oct-22 23:35 225 2 gusting 5 18.3
2014-Oct-22 23:25 270 1 gusting 4 18.3
2014-Oct-22 23:15 257 1 gusting 2 18.3
2014-Oct-22 23:05 225 0 gusting 2 18.3
2014-Oct-22 22:55 220 0 gusting 2 18.3
2014-Oct-22 22:45 222 0 gusting 2 18.3
2014-Oct-22 22:35 180 0 gusting 1 18.3
2014-Oct-22 22:25 135 1 gusting 2 18.3
2014-Oct-22 22:14 207 0 gusting 1 18.3
2014-Oct-22 22:05 225 0 gusting 1 18.3
2014-Oct-22 21:55 022 0 gusting 1 18.9
2014-Oct-22 21:45 18.9
2014-Oct-22 21:35 045 0 gusting 2 18.9
2014-Oct-22 21:25 270 0 gusting 2 18.9
2014-Oct-22 21:15 045 1 gusting 2 18.9
2014-Oct-22 21:05 135 19.4
2014-Oct-22 20:55 090 19.4
2014-Oct-22 20:45 180 0 gusting 0 19.4
2014-Oct-22 20:35 108 19.4
2014-Oct-22 20:25 135 20.0
2014-Oct-22 20:15 125 0 gusting 2 20.0
2014-Oct-22 20:05 135 0 gusting 2 20.0
2014-Oct-22 19:55 112 1 gusting 2 20.0
2014-Oct-22 19:45 090 0 gusting 4 20.0
2014-Oct-22 19:35 090 1 gusting 4 20.0
2014-Oct-22 19:25 090 1 gusting 2 20.6
2014-Oct-22 19:15 091 0 gusting 2 20.6
2014-Oct-22 19:05 090 0 gusting 5 20.6
2014-Oct-22 18:55 108 2 gusting 6 20.6
2014-Oct-22 18:45 090 2 gusting 6 20.6
2014-Oct-22 18:35 090 4 gusting 7 21.1
2014-Oct-22 18:25 124 5 gusting 8 21.1
2014-Oct-22 18:15 058 5 gusting 7 21.1
2014-Oct-22 18:05 045 5 gusting 7 21.7
2014-Oct-22 17:55 090 4 gusting 10 21.7
2014-Oct-22 17:45 090 5 gusting 7 22.2
2014-Oct-22 17:35 090 3 gusting 6 22.2
2014-Oct-22 17:25 088 4 gusting 6 22.8
2014-Oct-22 17:15 090 2 gusting 6 22.8
2014-Oct-22 17:05 135 4 gusting 8 23.3
2014-Oct-22 16:55 090 6 gusting 11 23.3
2014-Oct-22 16:45 089 4 gusting 12 23.9
2014-Oct-22 16:35 125 7 gusting 12 23.9
2014-Oct-22 16:25 123 4 gusting 14 24.4
2014-Oct-22 16:15 113 5 gusting 13 24.4
2014-Oct-22 16:05 112 7 gusting 13 24.4
2014-Oct-22 15:55 121 7 gusting 13 25.0
2014-Oct-22 15:45 099 6 gusting 13 25.0
2014-Oct-22 15:35 098 6 gusting 14 25.6
2014-Oct-22 15:25 120 5 gusting 13 25.6
2014-Oct-22 15:15 113 7 gusting 14 26.1
2014-Oct-22 15:05 090 7 gusting 14 25.6
2014-Oct-22 14:55 125 7 gusting 13 26.1
2014-Oct-22 14:45 131 8 gusting 13 26.1
2014-Oct-22 14:35 090 9 gusting 14 26.7
2014-Oct-22 14:25 110 6 gusting 13 27.2
2014-Oct-22 14:15 135 5 gusting 11 27.8
2014-Oct-22 14:05 270 5 gusting 11 27.2
2014-Oct-22 13:55 180 6 gusting 12 27.8
2014-Oct-22 13:45 170 5 gusting 13 27.2
2014-Oct-22 13:35 211 6 gusting 14 27.8
2014-Oct-22 13:25 157 6 gusting 13 27.8
2014-Oct-22 13:15 180 7 gusting 11 28.3
2014-Oct-22 13:05 124 6 gusting 12 28.3
2014-Oct-22 12:55 180 7 gusting 12 28.9
2014-Oct-22 12:45 140 6 gusting 17 28.9
2014-Oct-22 12:35 180 8 gusting 17 30.0
2014-Oct-22 12:25 074 5 gusting 10 30.6
2014-Oct-22 12:15 270 4 gusting 11 30.6
2014-Oct-22 12:05 270 5 gusting 11 30.0
2014-Oct-22 11:55 315 4 gusting 10 30.0
2014-Oct-22 11:45 317 6 gusting 10 30.0
2014-Oct-22 11:35 287 5 gusting 10 29.4
2014-Oct-22 11:25 350 6 gusting 11 29.4
2014-Oct-22 11:15 270 6 gusting 12 28.9
2014-Oct-22 11:05 045 4 gusting 13 28.9
2014-Oct-22 10:55 315 5 gusting 13 28.9
2014-Oct-22 10:45 270 6 gusting 13 28.3
2014-Oct-22 10:35 315 5 gusting 11 28.3
2014-Oct-22 10:25 315 8 gusting 13 28.3
2014-Oct-22 10:15 270 7 gusting 14 28.3
2014-Oct-22 10:05 270 8 gusting 18 27.8
2014-Oct-22 09:55 271 10 gusting 18 27.2
2014-Oct-22 09:45 302 9 gusting 17 27.2
2014-Oct-22 09:35 270 6 gusting 14 27.2
2014-Oct-22 09:25 296 8 gusting 18 26.7
2014-Oct-22 09:15 270 7 gusting 18 26.7
2014-Oct-22 09:05 315 11 gusting 19 26.7
2014-Oct-22 08:55 311 6 gusting 17 26.7
2014-Oct-22 08:45 313 7 gusting 11 26.7
2014-Oct-22 08:35 285 4 gusting 8 26.1
2014-Oct-22 08:25 270 1 gusting 6 26.1
2014-Oct-22 08:15 270 4 gusting 8 25.6
2014-Oct-22 08:05 270 5 gusting 14 25.6
2014-Oct-22 07:55 230 4 gusting 12 25.0
2014-Oct-22 07:45 228 2 gusting 6 25.0
2014-Oct-22 07:35 225 4 gusting 6 25.0
2014-Oct-22 07:25 202 1 gusting 8 25.6
2014-Oct-22 07:15 270 1 gusting 10 25.0
2014-Oct-22 07:05 315 5 gusting 11 25.0
2014-Oct-22 06:55 265 2 gusting 11 24.4
2014-Oct-22 06:45 315 5 gusting 11 23.9
2014-Oct-22 06:35 244 2 gusting 6 23.9
2014-Oct-22 06:25 270 4 gusting 11 23.9
2014-Oct-22 06:15 292 6 gusting 11 23.9
2014-Oct-22 06:05 225 5 gusting 6 23.3
2014-Oct-22 05:55 222 4 gusting 6 23.3
2014-Oct-22 05:45 270 2 gusting 6 23.9
2014-Oct-22 05:35 236 2 gusting 6 23.3
2014-Oct-22 05:25 270 2 gusting 5 23.3
2014-Oct-22 05:15 270 1 gusting 6 23.9
2014-Oct-22 05:05 270 0 gusting 5 23.9
2014-Oct-22 04:55 262 1 gusting 6 23.9
2014-Oct-22 04:45 191 4 gusting 8 23.9
2014-Oct-22 04:35 225 5 gusting 8 23.9
2014-Oct-22 04:25 180 4 gusting 7 23.9
2014-Oct-22 04:15 237 3 gusting 6 23.9
2014-Oct-22 04:05 225 5 gusting 8 23.9
2014-Oct-22 03:55 221 5 gusting 7 23.9
2014-Oct-22 03:45 225 5 gusting 10 24.4
2014-Oct-22 03:35 181 5 gusting 10 24.4
2014-Oct-22 03:25 216 4 gusting 7 24.4
2014-Oct-22 03:15 225 3 gusting 7 24.4
2014-Oct-22 03:05 225 2 gusting 6 25.0
2014-Oct-22 02:55 298 4 gusting 7 25.0
2014-Oct-22 02:45 270 3 gusting 6 25.0
2014-Oct-22 02:35 289 4 gusting 6 25.0
2014-Oct-22 02:25 344 4 gusting 6 25.0
2014-Oct-22 02:15 254 2 gusting 5 25.6
2014-Oct-22 02:05 315 2 gusting 6 25.6
2014-Oct-22 01:55 270 1 gusting 6 26.1
2014-Oct-22 01:45 315 1 gusting 6 26.1
2014-Oct-22 01:35 311 1 gusting 8 26.1
2014-Oct-22 01:25 282 3 gusting 8 26.7
2014-Oct-22 01:15 270 2 gusting 13 26.7
2014-Oct-22 01:05 225 0 gusting 5 26.1
2014-Oct-22 00:55 315 1 gusting 10 26.1
2014-Oct-22 00:45 295 4 gusting 12 26.1
2014-Oct-22 00:35 315 2 gusting 6 25.6
2014-Oct-22 00:25 309 2 gusting 5 25.6
2014-Oct-22 00:15 301 3 gusting 8 25.6
2014-Oct-22 00:05 270 1 gusting 5 25.0
2014-Oct-21 23:55 270 2 gusting 5 25.0
2014-Oct-21 23:45 270 1 gusting 6 25.0
2014-Oct-21 23:35 270 4 gusting 6 25.0
2014-Oct-21 23:25 265 4 gusting 6 24.4
2014-Oct-21 23:15 238 2 gusting 6 23.9
2014-Oct-21 23:05 270 2 gusting 5 23.9
2014-Oct-21 22:55 270 2 gusting 6 23.9
2014-Oct-21 22:45 255 2 gusting 5 23.9
2014-Oct-21 22:35 270 2 gusting 5 23.9
2014-Oct-21 22:25 225 2 gusting 6 23.9
2014-Oct-21 22:14 237 2 gusting 6 23.9
2014-Oct-21 22:05 315 2 gusting 5 23.9
2014-Oct-21 21:55 270 2 gusting 5 23.9
2014-Oct-21 21:45 240 2 gusting 6 23.9
2014-Oct-21 21:35 270 0 gusting 5 23.9
2014-Oct-21 21:25 270 2 gusting 6 23.9
2014-Oct-21 21:15 270 4 gusting 6 24.4
2014-Oct-21 21:05 315 5 gusting 6 24.4
2014-Oct-21 20:55 225 4 gusting 6 25.0
2014-Oct-21 20:45 225 2 gusting 6 25.0
2014-Oct-21 20:35 225 2 gusting 7 25.6
2014-Oct-21 20:25 236 4 gusting 7 25.6
2014-Oct-21 20:15 270 2 gusting 6 26.1
2014-Oct-21 20:05 270 4 gusting 6 26.7
2014-Oct-21 19:55 270 3 gusting 8 27.2
2014-Oct-21 19:45 286 6 gusting 8 27.2
2014-Oct-21 19:35 298 4 gusting 10 26.7
2014-Oct-21 19:25 225 4 gusting 10 27.2
2014-Oct-21 19:15 288 6 gusting 10 26.7
2014-Oct-21 19:05 225 0 gusting 1 27.2
2014-Oct-21 18:55 180 0 gusting 5 27.2
2014-Oct-21 18:45 270 1 gusting 5 27.8
2014-Oct-21 18:35 254 2 gusting 6 27.8
2014-Oct-21 18:25 270 2 gusting 6 28.3
2014-Oct-21 18:15 270 2 gusting 6 28.3
2014-Oct-21 18:05 270 2 gusting 6 28.3
2014-Oct-21 17:55 315 1 gusting 2 28.9
2014-Oct-21 17:45 282 1 gusting 5 28.9
2014-Oct-21 17:35 180 1 gusting 4 29.4
2014-Oct-21 17:25 180 1 gusting 5 30.0
2014-Oct-21 17:15 154 2 gusting 2 30.0
2014-Oct-21 17:05 180 0 gusting 5 30.6
2014-Oct-21 16:55 180 1 gusting 5 31.1
2014-Oct-21 16:45 180 2 gusting 6 31.1
2014-Oct-21 16:35 180 4 gusting 6 31.7
2014-Oct-21 16:25 165 2 gusting 7 31.7
2014-Oct-21 16:15 180 5 gusting 6 32.2
2014-Oct-21 16:05 144 3 gusting 6 32.8
2014-Oct-21 15:55 180 3 gusting 6 32.8
2014-Oct-21 15:45 212 5 gusting 7 33.3
2014-Oct-21 15:35 180 5 gusting 8 33.9
2014-Oct-21 15:25 180 2 gusting 6 34.4
2014-Oct-21 15:15 164 1 gusting 4 35.0
2014-Oct-21 15:05 180 35.0